Погода в Волышове

Россия / Псковская область     57°37′16″N   29°41′09″E
темп.,
°C
ветер,
м/с
пор.,
м/с
влажн.,
%
обл.,
%
осадки,
мм/ч
давл.,
гПа
погр.,
м
3 августа, вт
вт300:00+14з7149361 0.1 1000795
03:00+13зюз51395100 0.1 1002468
06:00+13зюз61293100 0.0 1003564
09:00+16зюз6107558 0.0 1004885
12:00+17зюз7106811 0.3 10051093
15:00+19зюз8105675 0.3 10061639
18:00+18з510554 0.1 10081404
21:00+15з49675 0.1 1009264
4 августа, ср
ср400:00+11з38860 0.0 1011146
03:00+10з36925 0.0 1013102
06:00+9з248919 0.0 101483
09:00+14зсз246580 0.0 1015420
12:00+17зсз235038 0.0 10161159
15:00+20зсз353997 0.0 10152393
18:00+17сз2456100 0.0 1016344
21:00+15ссз116193 0.0 101611
5 августа, чт
чт500:00+14в1162100 0.0 101712
03:00+13всв1163100 0.0 101712
06:00+12св2269100 0.0 101735
09:00+16в3457100 0.0 1017409
12:00+19вюв344775 0.0 10161217
15:00+21всв344333 0.0 10151795
18:00+16ююв2582100 0.9 1015188
21:00+13вюв23935 0.9 101647
6 августа, пт
пт600:00+11всв23965 0.0 101649
03:00+10всв23976 0.0 101653
06:00+10св311979 0.0 1015275
09:00+16всв611749 0.0 1014952
12:00+20всв7105173 0.0 10131570
15:00+20всв7946100 0.0 10122070
18:00+20в51052100 0.0 10121689
21:00+16всв61260100 0.0 1012933
7 августа, сб
сб700:00+15всв61268100 0.0 1012826
03:00+11св61396100 2.6 1011507
06:00+11св61398100 2.3 1011599
09:00+12всв51298100 2.8 1010586
12:00+14всв51198100 0.3 1010529
15:00+16всв51098100 0.4 1010527
18:00+16всв51198100 0.1 1010506
21:00+16всв4999100 4.5 1010376